Tracking 30995 objects as of 6-Jul-2025
HD Live streaming from Space Station
objects crossing your sky now

STARLINK-30563

Track STARLINK-30563 now!
10-day predictions
STARLINK-30563 is classified as:


NORAD ID: 58042
Int'l Code: 2023-156Q
Perigee: 481.5 km
Apogee: 483.3 km
Inclination: 53.2 °
Period: 94.1 minutes
Semi major axis: 6853 km
RCS: Unknown
Launch date: October 9, 2023
Source: United States (US)
Launch site: AIR FORCE WESTERN TEST RANGE (AFWTR)
Your satellite tracking list
Your tracking list is empty




NASA's NSSDC Master Catalog

Two Line Element Set (TLE):
1 58042U 23156Q   25186.29733017  .00000141  00000-0  16888-4 0  9991
2 58042  53.1589 144.8746 0001283  82.5157 277.5990 15.30192549 98474
Source of the keplerian elements: AFSPC